This is the latest recevied weather packets stored in our database for station/object IU5JAE-13. If no packets are shown the sender has not sent any weather packets the latest 10 day(s).
| Time | Temp. | Humidity | Pressure | Rain* | Wind** | Luminosity | Snow |
|---|---|---|---|---|---|---|---|
| 1777655116 | 16.67° C | 37% | 1023.3 hPa | 0 mm | - | 24 W/m² | - |
| 1777654533 | 16.67° C | 37% | 1023.5 hPa | 0 mm | - | 26 W/m² | - |
| 1777653931 | 17.22° C | 36% | 1023.4 hPa | 0 mm | - | 27 W/m² | - |
| 1777653329 | 18.33° C | 34% | 1023.4 hPa | 0 mm | - | 29 W/m² | - |
| 1777652726 | 20° C | 32% | 1023.4 hPa | 0 mm | - | 32 W/m² | - |
| 1777652124 | 21.11° C | 31% | 1023.4 hPa | 0 mm | - | 113 W/m² | - |
| 1777651521 | 20° C | 30% | 1023.3 hPa | 0 mm | - | 171 W/m² | - |
| 1777650919 | 20° C | 32% | 1023.3 hPa | 0 mm | - | 191 W/m² | - |
| 1777650316 | 19.44° C | 31% | 1023.2 hPa | 0 mm | - | 211 W/m² | - |
| 1777649734 | 20° C | 30% | 1023.2 hPa | 0 mm | - | 233 W/m² | - |
| 1777649132 | 20° C | 31% | 1023.2 hPa | 0 mm | - | 258 W/m² | - |
| 1777648529 | 19.44° C | 31% | 1023.3 hPa | 0 mm | - | 282 W/m² | - |
| 1777647927 | 19.44° C | 31% | 1023.3 hPa | 0 mm | - | 304 W/m² | - |
| 1777647325 | 20° C | 30% | 1023.3 hPa | 0 mm | - | 326 W/m² | - |
| 1777646723 | 20.56° C | 29% | 1023.4 hPa | 0 mm | - | 352 W/m² | - |
| 1777646120 | 20° C | 29% | 1023.2 hPa | 0 mm | - | 369 W/m² | - |
| 1777645517 | 20° C | 29% | 1023.3 hPa | 0 mm | - | 400 W/m² | - |
| 1777644935 | 20° C | 30% | 1023.4 hPa | 0 mm | - | 424 W/m² | - |
| 1777644333 | 20° C | 29% | 1023.4 hPa | 0 mm | - | 447 W/m² | - |
| 1777643730 | 20.56° C | 29% | 1023.4 hPa | 0 mm | - | 468 W/m² | - |
| 1777643128 | 20.56° C | 30% | 1023.5 hPa | 0 mm | - | 482 W/m² | - |
| 1777642525 | 20.56° C | 30% | 1023.5 hPa | 0 mm | - | 509 W/m² | - |
| 1777641923 | 21.11° C | 29% | 1023.6 hPa | 0 mm | - | 533 W/m² | - |
| 1777641321 | 20.56° C | 29% | 1023.6 hPa | 0 mm | - | 554 W/m² | - |
| 1777640718 | 21.11° C | 31% | 1023.7 hPa | 0 mm | - | 574 W/m² | - |
* Rain latest hour (hover to see other rain measurements)
** Current wind speed in m/s (hover to see current wind gust speed)